Total_Precipitation_Accumulation
0.00 0.01 0.01 0.01 0.02 0.02 0.04 0.06 0.09 0.12 0.11 0.14 0.27 0.53 0.79 0.89 1.16 1.12 1.15 1.30 1.46 1.60 1.89 2.31 2.61 3.17 3.79 4.16 4.55 4.70 4.68 4.55 4.33 3.91 3.56 3.30 3.07 2.91 2.66 2.49 2.40 2.27 2.14 2.24
0.01 0.03 0.02 0.02 0.02 0.02 0.04 0.07 0.10 0.15 0.15 0.19 0.37 0.59 0.89 0.89 0.98 1.04 0.95 0.99 1.18 1.55 1.80 2.33 2.62 2.83 3.30 3.82 4.28 4.56 4.70 4.58 4.18 3.75 3.51 3.35 3.29 2.92 2.62 2.58 2.60 2.43 2.44 2.44
0.01 0.02 0.02 0.02 0.02 0.04 0.06 0.07 0.10 0.10 0.14 0.27 0.40 0.79 1.06 0.96 0.91 0.94 0.93 0.99 1.17 1.63 2.07 2.33 2.52 2.68 2.96 3.35 3.66 3.78 3.93 3.89 3.72 3.72 3.70 3.61 3.54 3.08 2.93 2.91 2.88 2.72 2.68 2.63
0.01 0.02 0.02 0.03 0.04 0.05 0.08 0.07 0.06 0.07 0.14 0.34 0.40 0.86 1.30 1.15 1.01 1.06 1.12 1.07 1.35 1.68 1.71 1.87 2.18 2.49 2.66 2.89 3.24 3.47 3.53 3.48 3.38 3.46 3.47 3.33 3.11 2.92 3.01 3.26 3.23 2.96 2.71 2.50
0.03 0.03 0.03 0.04 0.04 0.05 0.07 0.06 0.06 0.09 0.16 0.33 0.42 0.65 1.19 1.24 1.25 1.14 1.16 1.27 1.49 1.52 1.46 1.57 1.77 2.08 2.19 2.50 2.79 3.04 3.31 3.39 3.32 3.35 3.27 3.25 3.12 3.11 3.14 3.08 3.03 2.78 2.54 2.20
0.04 0.04 0.04 0.03 0.03 0.04 0.05 0.06 0.12 0.19 0.31 0.66 0.52 0.53 1.00 1.18 1.03 0.97 1.07 1.10 1.29 1.30 1.31 1.49 1.65 1.87 1.99 2.15 2.26 2.40 2.61 2.88 3.03 3.06 3.03 3.05 2.98 2.96 2.89 2.75 2.58 2.36 2.16 1.88
0.09 0.10 0.08 0.05 0.05 0.06 0.06 0.10 0.39 0.74 0.98 1.03 0.56 0.60 1.06 0.93 0.74 0.75 0.94 0.99 1.05 1.03 1.01 1.23 1.36 1.47 1.61 1.73 1.83 1.95 2.15 2.47 2.61 2.57 2.56 2.68 2.73 2.75 2.65 2.59 2.41 2.17 1.89 1.59
0.16 0.21 0.12 0.07 0.07 0.07 0.08 0.10 0.34 0.62 0.75 0.82 0.67 1.02 1.46 0.98 0.76 0.80 0.84 0.85 0.83 0.80 0.77 0.93 1.14 1.35 1.41 1.45 1.57 1.70 1.93 2.15 2.22 2.14 2.26 2.47 2.55 2.64 2.52 2.53 2.28 2.02 1.81 1.69
0.11 0.11 0.07 0.07 0.11 0.11 0.09 0.08 0.14 0.28 0.37 0.60 0.84 1.14 1.19 0.74 0.65 0.74 0.76 0.77 0.84 0.81 0.75 0.82 0.90 1.07 1.12 1.18 1.30 1.44 1.78 2.05 2.12 2.11 2.23 2.35 2.43 2.42 2.33 2.21 2.05 1.86 1.87 1.81
0.04 0.06 0.08 0.07 0.09 0.11 0.10 0.11 0.16 0.22 0.37 0.60 0.81 1.11 1.26 0.89 0.72 0.53 0.49 0.53 0.51 0.53 0.54 0.61 0.66 0.76 0.88 1.10 1.36 1.50 1.62 1.89 2.01 2.02 2.04 2.07 2.24 2.20 2.09 2.02 1.87 1.73 1.64 1.68
0.04 0.04 0.07 0.08 0.11 0.13 0.13 0.12 0.14 0.17 0.21 0.41 0.81 1.04 0.84 0.70 0.59 0.54 0.50 0.54 0.47 0.40 0.41 0.49 0.62 0.76 0.92 1.07 1.24 1.34 1.39 1.53 1.67 1.75 1.87 1.87 1.88 1.95 1.98 1.86 1.69 1.63 1.60 1.63
0.04 0.04 0.06 0.13 0.18 0.16 0.14 0.12 0.13 0.17 0.17 0.26 0.47 0.68 0.55 0.61 0.60 0.52 0.54 0.60 0.60 0.56 0.50 0.54 0.72 0.88 1.00 1.13 1.15 1.16 1.20 1.32 1.47 1.63 1.82 1.92 1.93 1.96 1.92 1.74 1.60 1.59 1.61 1.68
0.05 0.06 0.11 0.28 0.40 0.27 0.16 0.13 0.13 0.14 0.12 0.20 0.41 0.65 0.46 0.41 0.50 0.65 0.89 1.07 0.86 0.67 0.62 0.72 0.81 0.83 0.86 0.93 1.02 0.99 1.01 1.17 1.35 1.57 1.91 2.07 2.07 2.00 1.92 1.74 1.55 1.51 1.55 1.65
0.08 0.06 0.10 0.30 0.43 0.36 0.26 0.17 0.13 0.11 0.13 0.17 0.26 0.52 0.48 0.47 0.52 0.68 0.86 0.80 0.79 0.74 0.69 0.80 0.80 0.86 0.85 0.81 0.89 0.88 0.93 1.04 1.26 1.45 1.65 1.76 1.68 1.64 1.65 1.58 1.49 1.44 1.46 1.54
0.12 0.08 0.07 0.12 0.21 0.24 0.24 0.22 0.18 0.15 0.12 0.21 0.26 0.37 0.45 0.48 0.61 0.77 0.91 0.91 0.88 0.72 0.62 0.69 0.69 0.75 0.77 0.77 0.84 0.80 0.78 0.84 0.98 1.16 1.28 1.42 1.42 1.40 1.39 1.45 1.49 1.51 1.59 1.59
0.18 0.18 0.14 0.16 0.19 0.24 0.27 0.25 0.19 0.13 0.11 0.16 0.24 0.38 0.50 0.57 0.67 0.74 0.71 0.64 0.59 0.54 0.44 0.42 0.58 0.67 0.63 0.62 0.64 0.60 0.65 0.79 0.94 1.04 1.15 1.35 1.48 1.51 1.49 1.52 1.60 1.64 1.62 1.62
0.24 0.27 0.26 0.25 0.24 0.25 0.34 0.33 0.24 0.15 0.14 0.20 0.32 0.49 0.65 0.55 0.55 0.61 0.63 0.61 0.57 0.54 0.38 0.32 0.40 0.55 0.54 0.54 0.55 0.64 0.78 0.90 1.02 1.16 1.30 1.49 1.58 1.66 1.67 1.61 1.70 1.65 1.65 1.70
0.39 0.41 0.33 0.31 0.42 0.51 0.37 0.30 0.29 0.29 0.26 0.28 0.40 0.42 0.56 0.56 0.61 0.73 0.73 0.71 0.55 0.49 0.39 0.34 0.36 0.40 0.47 0.53 0.60 0.74 1.00 1.20 1.24 1.38 1.57 1.69 1.78 1.74 1.71 1.70 1.73 1.79 1.87 1.89
0.33 0.49 0.47 0.47 0.60 0.52 0.44 0.32 0.36 0.41 0.54 0.55 0.63 0.61 0.56 0.55 0.66 0.74 0.64 0.57 0.57 0.47 0.43 0.42 0.41 0.47 0.55 0.59 0.63 0.83 1.05 1.28 1.41 1.47 1.61 1.78 1.87 1.89 1.91 1.93 1.87 1.92 2.00 1.96
0.34 0.50 0.62 0.59 0.74 0.73 0.61 0.48 0.47 0.58 1.02 0.86 0.79 0.80 0.68 0.63 0.76 0.82 0.79 0.72 0.65 0.57 0.53 0.52 0.52 0.60 0.73 0.81 0.85 0.98 1.11 1.24 1.42 1.51 1.62 1.79 2.00 2.05 2.09 2.20 2.25 2.18 2.12 2.02
0.63 0.71 0.74 0.74 0.80 0.87 0.74 0.68 0.71 1.10 1.38 1.07 0.90 0.86 0.82 0.91 0.93 0.88 0.79 0.79 0.72 0.61 0.63 0.60 0.61 0.69 0.85 0.97 1.06 1.18 1.32 1.44 1.45 1.52 1.65 1.84 2.01 2.11 2.16 2.30 2.39 2.37 2.34 2.32
0.83 0.88 0.87 0.88 1.07 1.24 0.87 0.83 1.23 1.49 1.25 1.24 1.20 1.11 1.00 0.97 0.92 0.88 0.78 0.75 0.69 0.67 0.72 0.72 0.75 0.89 1.07 1.19 1.21 1.28 1.35 1.40 1.42 1.44 1.54 1.67 1.84 1.89 1.97 2.20 2.31 2.38 2.41 2.37
0.90 0.99 1.06 1.17 1.29 1.19 1.00 1.09 1.26 1.38 1.54 1.45 1.33 1.30 1.13 1.10 1.01 0.91 0.81 0.76 0.72 0.69 0.74 0.78 0.83 1.04 1.27 1.40 1.43 1.48 1.37 1.42 1.45 1.49 1.62 1.74 1.83 1.89 2.01 2.10 2.12 2.19 2.26 2.22
1.03 0.92 1.11 1.35 1.39 1.30 1.17 1.05 0.99 1.12 1.23 1.21 1.20 1.19 1.14 1.11 1.05 0.96 0.83 0.74 0.71 0.70 0.66 0.70 0.79 0.88 0.99 1.18 1.34 1.43 1.46 1.51 1.53 1.57 1.62 1.68 1.80 1.83 1.86 1.97 2.06 2.16 2.26 2.34
1.22 1.09 1.31 1.59 1.50 1.37 1.38 1.27 1.15 1.23 1.29 1.21 1.14 1.11 1.12 1.09 1.03 0.89 0.83 0.79 0.74 0.69 0.67 0.71 0.80 0.81 0.86 0.94 1.04 1.12 1.21 1.33 1.39 1.45 1.50 1.55 1.57 1.65 1.73 1.77 1.85 1.87 1.96 1.97
1.32 1.28 1.57 1.90 1.66 1.49 1.47 1.36 1.24 1.29 1.26 1.33 1.39 1.35 1.15 1.04 1.09 1.00 0.86 0.76 0.74 0.73 0.72 0.76 0.78 0.78 0.81 0.85 0.99 1.10 1.18 1.32 1.44 1.52 1.54 1.47 1.43 1.48 1.53 1.56 1.55 1.54 1.47 1.46